This demonstration page uses our WeatherBlox Daily Observations layout. Learn more.

Left ArrowRight Arrow

41.55636, -103.73856

Hourly Observations for September 16, 2021

Temp ( °F °C ) Dew Point ( °F °C ) Humidity (%) Winds ( mph kmh ) Pressure ( in mb ) Visibility ( mi km ) Precip ( " mm )
12:58 am 00:58 Clear 70 20.9 26 -3.5 19 19 SSW 12 19 29.71 1006 10 16 N/A
1:58 am 01:58 Clear 67 19.2 30 -1.2 25 25 SW 13 20 29.71 1006 10 16 N/A
2:58 am 02:58 Clear 63 17.2 28 -2.3 26 26 SW 9 15 29.71 1006 10 16 N/A
3:58 am 03:58 Clear 59 14.9 29 -1.4 33 33 SSW 13 20 29.72 1006 10 16 N/A
4:58 am 04:58 Clear 59 14.8 23 -4.9 25 25 SW 8 13 29.72 1006 10 16 N/A
5:58 am 05:58 Clear 56 13.2 22 -5.5 27 27 SW 10 17 29.73 1007 10 16 N/A
6:58 am 06:58 Sunny 56 13.6 22 -5.5 26 26 WSW 6 9 29.75 1008 10 16 N/A
7:58 am 07:58 Sunny 62 16.4 24 -4.5 24 24 N N/A 29.75 1007 10 16 N/A
8:58 am 08:58 Sunny 70 21 25 -3.8 19 19 W 3 6 29.75 1007 10 16 N/A
9:58 am 09:58 Sunny 81 27.3 27 -2.8 14 14 N 3 6 29.73 1007 10 16 N/A
10:58 am 10:58 Sunny 87 30.5 23 -5 10 10 W 7 11 29.72 1006 10 16 N/A
11:58 am 11:58 Sunny 91 32.5 21 -6.3 8 8 NNW 8 13 29.68 1005 10 16 N/A
12:58 pm 12:58 Mostly Sunny 93 33.8 20 -6.5 7 7 W 9 15 29.65 1004 10 16 N/A
1:58 pm 13:58 Sunny 93 33.9 21 -6.3 7 7 WSW 12 19 29.63 1003 10 16 N/A
2:58 pm 14:58 Sunny 94 34.3 20 -6.6 7 7 W 9 15 29.61 1003 10 16 N/A
3:58 pm 15:58 Partly Cloudy 91 32.8 20 -6.7 7 7 W 9 15 29.63 1003 10 16 N/A
4:58 pm 16:58 Mostly Cloudy 88 31.3 23 -4.8 9 9 NW 17 28 29.65 1004 10 16 N/A
5:58 pm 17:58 Mostly Cloudy 85 29.4 26 -3.1 12 12 N 14 22 29.70 1006 10 16 N/A
6:58 pm 18:58 Mostly Cloudy 85 29.4 26 -3.5 11 11 NW 18 30 29.71 1006 10 16 N/A
7:58 pm 19:58 Mostly Cloudy 79 25.9 26 -3.5 14 14 N 7 11 29.71 1006 10 16 N/A
8:58 pm 20:58 Mostly Cloudy 76 24.7 27 -3 16 16 SW 6 9 29.75 1007 10 16 N/A
9:58 pm 21:58 Mostly Cloudy 66 19.1 44 6.5 44 44 NE 20 31 29.81 1009 10 16 N/A
10:58 pm 22:58 Mostly Clear 63 17 47 8.4 57 57 ENE 16 26 29.87 1012 10 16 N/A
11:58 pm 23:58 Mostly Clear 58 14.2 38 3.1 47 47 N 22 35 29.97 1015 10 16 N/A

Powered by AerisWeather